HISPASAT 30W-6

Last updated on Sat Aug 15 2026 00:03:01 GMT+0000 (Coordinated Universal Time)

1 43228U 18023A 26225.99173625 -.00000233 00000+0 00000+0 0 9999 2 43228 0.0400 55.7066 0004370 56.8961 176.8467 1.00271571 30986
UTC large
Height (km)
Speed (km/s)
/
Latitude / Longitude
Inclination (degrees)
Orbital Period (minutes)
Azimuth
Elevation
Range (km)
Doppler Factor

Next 0 passes for location: London (51.5072 / 0.1276)

No passes found over London.
HISPASAT 30W-6